GW7202 Weather Reports


time (UTC)temp
F
wind
direction
speed
knots
gust
knots
rain 1hr
in
rain 24hr
in
rain mn
in
humidity
%
barometer
mb
20260504081524 61 214 2.6 5.2 0.00 0.00 0.00 64 1008.3
20260504050012 63 201 3.5 7.0 0.00 0.00 0.00 59 1009.8
20260504044514 64 174 3.5 8.7 0.00 0.00 0.00 57 1010.0
20260504043007 64 174 4.3 8.7 0.00 0.00 0.00 56 1010.1
20260504041524 65 133 4.3 8.7 0.00 0.00 0.00 55 1010.2
20260504040024 65 217 3.5 7.8 0.00 0.00 0.00 56 1010.3
20260504034521 65 191 4.3 8.7 0.00 0.00 0.00 55 1010.3
20260504033016 65 178 3.5 8.7 0.00 0.00 0.00 55 1010.4
20260504031529 65 189 3.5 8.7 0.00 0.00 0.00 55 1010.6
20260504030011 66 169 4.3 7.8 0.00 0.00 0.00 55 1010.6
20260504024507 65 194 4.3 7.8 0.00 0.00 0.00 55 1010.5
20260504023028 65 184 2.6 6.1 0.00 0.00 0.00 57 1010.4
20260504021522 65 203 1.7 2.6 0.00 0.00 0.00 57 1010.4
20260504020020 65 205 1.7 4.3 0.00 0.00 0.00 56 1010.4
20260504014537 65 153 0.9 1.7 0.00 0.00 0.00 57 1010.3
20260504013018 65 202 0.9 1.7 0.00 0.00 0.00 58 1010.1
20260504011514 66 157 0.0 0.9 0.00 0.00 0.00 57 1010.1
20260504010012 69 195 0.0 2.6 0.00 0.00 0.00 51 1010.0
20260504004526 71 155 0.9 3.5 0.00 0.00 0.00 48 1010.0
20260504003026 73 178 2.6 3.5 0.00 0.00 0.00 46 1009.9
20260504001526 75 175 2.6 7.8 0.00 0.00 0.00 38 1009.9
20260504000037 76 190 2.6 6.1 0.00 0.00 0.00 37 1009.8
20260503234519 77 184 3.5 8.7 0.00 0.00 0.00 38 1009.9
20260503233021 78 128 3.5 10.4 0.00 0.00 0.00 33 1010.0
20260503231517 78 246 5.2 10.4 0.00 0.00 0.00 37 1010.1
20260503230025 78 164 7.0 13.0 0.00 0.00 0.00 38 1010.1
20260503224533 78 170 6.1 13.9 0.00 0.00 0.00 36 1010.1
20260503223028 78 184 7.0 14.8 0.00 0.00 0.00 37 1010.1
20260503221526 77 228 7.0 14.8 0.00 0.00 0.00 36 1010.1
20260503220028 77 176 8.7 15.6 0.00 0.00 0.00 36 1010.4
20260503214518 77 181 7.0 15.6 0.00 0.00 0.00 37 1010.5
20260503213021 77 201 5.2 13.9 0.00 0.00 0.00 36 1010.7
20260503211515 76 184 9.6 14.8 0.00 0.00 0.00 34 1010.9
20260503210036 77 124 5.2 13.9 0.00 0.00 0.00 35 1011.2
20260503204513 76 137 5.2 20.9 0.00 0.00 0.00 36 1011.5
20260503203014 75 212 7.8 14.8 0.00 0.00 0.00 35 1011.9
20260503201505 75 183 8.7 17.4 0.00 0.00 0.00 34 1012.2
20260503200006 75 181 7.0 13.9 0.00 0.00 0.00 35 1012.6
20260503194521 74 201 7.8 16.5 0.00 0.00 0.00 37 1012.9
20260503193017 74 181 8.7 13.9 0.00 0.00 0.00 37 1013.4
20260503191517 74 198 5.2 11.3 0.00 0.00 0.00 39 1013.6
20260503190016 73 159 7.0 17.4 0.00 0.00 0.00 35 1013.9
20260503184510 72 244 5.2 17.4 0.00 0.00 0.00 34 1014.2
20260503183010 72 174 5.2 11.3 0.00 0.00 0.00 34 1014.4
20260503181507 71 158 7.8 17.4 0.00 0.00 0.00 36 1014.6
20260503180024 70 205 7.0 13.9 0.00 0.00 0.00 40 1015.1
20260503174523 69 173 7.0 13.0 0.00 0.00 0.00 37 1015.5
20260503173020 69 176 7.0 13.9 0.00 0.00 0.00 39 1015.7
20260503171518 68 134 4.3 12.2 0.00 0.00 0.00 37 1015.9